Starlink 30383

operational
NORAD ID: 57773 Int'l Des: 2023-134 Owner: SPXS Country: US Constellation: starlink
LEOCIRCULAR

Starlink 30383について

説明を読み込み中...

リアルタイム位置

3D地球を読み込み中...

次回通過

高度履歴

Altitude vs Time

uPlot chart will show altitude changes over time

軌道要素

1 57773U 23134C 25352.49553463 -.00000881 00000-0 -50161-4 0 9994
2 57773 43.0016 279.0320 0000966 273.5270 86.5462 15.02539876127259
Epoch: Dec 18, 2025 • Age: 18 hours

現在のステータス

高度 561.2 km
速度 7.58 km/s
衛星直下点 -12.70°S, 74.18°W
打ち上げ日 Sep 4, 2023
運用期間 2.2 years
タイプ internet

技術仕様

分類 Payload
質量 730.00 kg
乾燥質量 700.00 kg
総質量 730.00 kg
長さ 0.30 m
直径 4.10 m
スパン 29.00 m
形状 Box + pan
製造者 SPXS
バスタイプ Starlink V2M
フェーズステータス In Orbit
所有者/国 SPXS/US

大規模コンステレーション

Loading constellations...